TimeCDT,TemperatureF,Dew PointF,Humidity,Sea Level PressureIn,VisibilityMPH,Wind Direction,Wind SpeedMPH,Gust SpeedMPH,PrecipitationIn,Events,Conditions,WindDirDegrees,DateUTC
12:06 AM,46.4,46.4,100,29.92,1.8,Calm,Calm,-,N/A,,Overcast,0,2013-03-31 05:06:00
12:16 AM,46.4,46.4,100,29.91,2.0,Calm,Calm,-,N/A,,Overcast,0,2013-03-31 05:16:00
12:26 AM,46.4,44.6,93,29.91,1.5,Calm,Calm,-,N/A,,Overcast,0,2013-03-31 05:26:00
12:41 AM,46.4,44.6,93,29.91,1.5,Calm,Calm,-,N/A,,Overcast,0,2013-03-31 05:41:00
12:51 AM,46.4,44.6,93,29.91,1.0,Calm,Calm,-,N/A,,Overcast,0,2013-03-31 05:51:00
12:54 AM,46.9,45.0,93,29.91,1.0,Calm,Calm,-,N/A,,Overcast,0,2013-03-31 05:54:00
1:43 AM,48.2,46.4,93,29.90,3.0,Calm,Calm,-,N/A,,Overcast,0,2013-03-31 06:43:00
1:54 AM,48.0,46.0,93,29.90,2.5,Calm,Calm,-,N/A,,Overcast,0,2013-03-31 06:54:00
2:09 AM,48.2,46.4,93,29.89,4.0,SW,3.5,-,N/A,,Overcast,220,2013-03-31 07:09:00
2:49 AM,48.2,46.4,93,29.89,5.0,WSW,4.6,-,N/A,,Overcast,250,2013-03-31 07:49:00
2:54 AM,48.0,46.0,93,29.90,5.0,WSW,5.8,-,N/A,,Overcast,240,2013-03-31 07:54:00
3:31 AM,48.2,46.4,93,29.88,6.0,WSW,5.8,-,N/A,,Overcast,250,2013-03-31 08:31:00
3:54 AM,48.9,46.9,93,29.88,6.0,WSW,5.8,-,N/A,,Overcast,240,2013-03-31 08:54:00
4:39 AM,48.2,46.4,93,29.89,5.0,WNW,5.8,-,N/A,,Overcast,290,2013-03-31 09:39:00
4:54 AM,48.9,46.0,90,29.89,4.0,WNW,5.8,-,N/A,,Overcast,290,2013-03-31 09:54:00
5:41 AM,48.2,44.6,87,29.88,5.0,Calm,Calm,-,N/A,,Mostly Cloudy,0,2013-03-31 10:41:00
5:54 AM,46.9,45.0,93,29.90,5.0,West,3.5,-,N/A,,Mostly Cloudy,270,2013-03-31 10:54:00
6:54 AM,48.0,46.0,93,29.91,5.0,West,3.5,-,N/A,,Overcast,260,2013-03-31 11:54:00
7:54 AM,48.0,45.0,89,29.92,3.0,WNW,4.6,-,N/A,,Overcast,290,2013-03-31 12:54:00
8:54 AM,50.0,46.9,89,29.92,3.0,Calm,Calm,-,N/A,,Scattered Clouds,0,2013-03-31 13:54:00
9:54 AM,54.0,48.9,83,29.91,6.0,Variable,3.5,-,N/A,,Haze,0,2013-03-31 14:54:00
10:54 AM,60.1,48.0,64,29.89,10.0,NNE,3.5,-,N/A,,Scattered Clouds,20,2013-03-31 15:54:00
11:54 AM,64.0,45.0,50,29.87,10.0,NW,10.4,-,N/A,,Scattered Clouds,320,2013-03-31 16:54:00
12:54 PM,64.9,43.0,45,29.88,10.0,NNW,6.9,-,0.01,,Scattered Clouds,330,2013-03-31 17:54:00
1:54 PM,66.9,37.0,33,29.87,10.0,WNW,12.7,-,N/A,,Clear,290,2013-03-31 18:54:00
2:54 PM,68.0,34.0,28,29.86,10.0,NW,12.7,21.9,N/A,,Scattered Clouds,320,2013-03-31 19:54:00
3:54 PM,66.9,33.1,28,29.85,10.0,NW,13.8,24.2,N/A,,Mostly Cloudy,310,2013-03-31 20:54:00
4:54 PM,68.0,33.1,27,29.84,10.0,West,12.7,-,N/A,,Scattered Clouds,280,2013-03-31 21:54:00
5:54 PM,64.9,35.1,33,29.86,10.0,WNW,13.8,21.9,N/A,,Mostly Cloudy,290,2013-03-31 22:54:00
6:54 PM,62.1,36.0,38,29.86,10.0,WNW,11.5,-,N/A,,Mostly Cloudy,300,2013-03-31 23:54:00
7:54 PM,61.0,39.9,46,29.88,10.0,NW,9.2,-,N/A,,Overcast,310,2013-04-01 00:54:00
8:54 PM,59.0,37.9,46,29.91,10.0,NW,9.2,-,N/A,,Overcast,310,2013-04-01 01:54:00
9:54 PM,55.0,37.0,51,29.93,10.0,West,5.8,-,N/A,,Partly Cloudy,280,2013-04-01 02:54:00
10:54 PM,48.9,35.1,59,29.94,10.0,West,4.6,-,N/A,,Clear,260,2013-04-01 03:54:00
11:54 PM,48.9,33.1,54,29.95,10.0,Calm,Calm,-,N/A,,Clear,0,2013-04-01 04:54:00